STARLINK-5355, 57139

Orbit data source: Space-Track

STARLINK-5355, 57139 is a payload satellite owned by SpaceX/Seattle (US) in LEO that was launched on Fri, 23 Jun 2023 UTC via an FALCON 9 launch vehicle from the Air Force Eastern Test Range (AFETR). Payload-class satellites include a variety of spacecraft equipped with specific instruments for various scientific and technological missions. These include communications satellites like Starlink; space stations such as the ISS; scientific satellites like the Hubble; Earth observation satellites from companies like Planet Labs, Umbra, and HawkEye 360; GPS; miniature CubeSats for education and research; and military/defense satellites.

Loading next visibility...
Identifier
57139, 2023-090AQ
Orbit
LEO
Country
Flag of USUS
Related business
Manufacturer
SpaceX/Seattle
Mission
Operational Commercial Communications
Bus & Motor
STARLINK, Unknown motor
Mass
305 kg wet, ~290 kg dry
Launch date (UTC)
2023-06-23 (3 years ago)
Launch vehicle
FALCON 9
Launch site
Air Force Eastern Test Range (AFETR)
Object type
Payload
Rocket body
Debris
Shape & HBR
Box + 1 Pan, 10.1 m
Radar Cross Section
11.087 m², Large (>1 m²)

Expand to show TLE details & history
Last TLE update: 2 days ago

TLE from 2 days ago
0 STARLINK-5355
1 57139U 23090AQ  26170.99749456  .00000349  00000-0  22212-4 0  9997
2 57139  43.0024  45.2544 0001494 258.8960 101.1724 15.27578093166006
Epoch: 2026-06-19T23:56Z
TLE epoch observation values (Epoch: 2026-06-19T23:56:23.529Z)
Latitude
0.00002°
Longitude
137.93794°
Altitude
483.029 km
Speed
7.626 km/s
True Right ascension
03h 01m 01s
True Declination
0° 00' 00"
Sunlit
Object was in daylight at epoch
Visualization orbit readout
Latitude
Unknown
Longitude
Unknown
Altitude
Unknown
Speed
Unknown
Apparent Right ascension
Unknown
Apparent Declination
Unknown
Sunlit
N/A
Visualization observer readout
Local Sidereal Time
21:32:31
Azimuth
Unknown
Elevation
Unknown
Doppler factor
Unknown
Orbital elements
Apogee altitude
486.025 km
Perigee altitude
483.974 km
Semi-major axis
6,863.137 km
Eccentricity
0.00015
Inclination
43.0024°
RAAN
45.2544°
Arg. of periapsis
258.896°
True anomaly
101.18919°
Mean anomaly
101.1724°
Eccentric anomaly
101.1808°
Mean motion
3.81733 °/min
Orbital period
94.31 mins
BSTAR
0.000022212
Loading maneuver chart data...
Computing Atmospheric mass density...
Loading historical data...
Loading historical data...
Loading historical data...
Loading historical data...
Loading historical data...
Loading historical data...
Loading historical data...

Documentation

Showing up to 5 results
|